RH
34 36 36 45 54 58 60 63 57 48 41 48 46 44 36 35 36 32 33 33 30 30 31 35 38 36 34 37 38 34 31 32 29 42 61 63 62 65 62 61 64 63 68 80
31 34 42 47 47 61 62 70 66 52 43 56 49 48 41 41 37 34 35 33 31 30 32 33 39 37 34 36 38 29 29 29 31 38 56 66 63 64 66 66 72 79 80 92
41 40 47 53 57 64 63 62 66 58 52 60 58 50 44 38 33 32 33 32 32 30 32 32 38 37 35 35 35 29 26 25 31 38 44 58 66 72 70 68 74 83 91 93
49 49 53 59 57 63 67 66 65 69 74 82 65 64 51 41 36 35 36 34 30 28 30 32 38 39 35 35 38 34 26 22 29 37 41 44 46 57 69 75 79 87 95 94
47 55 66 74 71 77 75 73 78 84 79 77 66 69 45 40 36 36 36 32 32 30 30 33 37 35 33 34 37 34 30 23 29 36 39 41 45 51 58 70 81 88 94 95
46 50 60 74 81 82 85 88 87 84 87 90 65 73 51 36 33 35 38 38 32 31 32 31 35 33 32 35 36 36 32 24 30 35 38 41 44 47 53 62 75 88 92 94
43 51 62 68 85 85 95 96 98 98 97 80 56 64 52 35 33 36 39 38 35 33 33 36 36 35 33 32 35 37 36 25 29 33 37 40 44 46 51 59 70 83 87 91
47 68 66 72 79 87 88 95 95 88 89 77 55 60 45 36 35 37 42 40 37 37 36 38 37 38 32 31 36 37 37 27 28 32 36 39 44 46 49 55 65 74 80 81
51 68 75 77 87 80 90 92 80 94 84 93 73 60 45 43 42 41 41 42 39 40 41 42 39 40 37 31 34 37 37 34 26 30 34 39 41 44 47 51 55 58 62 66
47 58 60 73 79 81 88 92 90 96 93 95 71 66 60 53 47 44 43 44 43 44 43 43 42 40 35 31 35 38 39 36 28 27 31 32 37 41 50 54 55 55 59 57
55 54 59 68 78 84 88 97 96 90 86 97 97 87 78 63 58 55 52 52 50 48 49 49 48 45 38 37 36 38 38 38 37 27 28 31 32 36 43 50 57 57 56 58
63 58 60 64 69 78 88 93 93 98 89 88 98 94 86 79 68 61 57 56 55 53 55 58 57 49 40 41 40 41 43 42 40 35 27 31 34 36 38 42 49 53 52 53
58 68 77 66 71 73 78 88 90 89 94 96 96 89 89 84 75 68 62 60 58 58 57 51 58 56 50 48 46 47 49 48 45 40 33 32 36 38 39 43 44 47 50 52
60 62 68 82 93 98 94 88 87 97 97 87 94 87 86 87 80 68 67 65 61 58 62 57 55 65 62 52 49 46 48 50 50 47 43 39 41 44 46 46 47 49 53 53
51 61 70 63 69 87 90 97 94 95 88 96 83 88 82 86 86 76 73 67 65 61 63 63 62 57 62 78 70 56 52 51 52 54 51 50 51 52 52 51 53 56 56 56
46 55 79 67 65 70 88 83 89 88 95 91 91 89 88 74 80 76 75 67 65 65 64 63 63 66 63 59 61 70 69 62 58 60 60 59 57 57 57 59 60 61 60 57
56 52 67 68 68 63 72 68 71 76 76 74 82 79 69 78 79 78 74 67 68 63 57 56 58 60 62 64 65 65 68 70 68 65 65 66 64 59 59 61 63 61 60 61
57 57 64 75 67 75 65 65 66 65 72 68 70 67 73 79 78 72 65 62 59 56 52 53 53 55 57 56 61 66 64 66 72 77 73 71 71 68 68 67 61 62 66 65
40 49 60 76 75 58 55 58 52 65 74 73 70 66 72 74 82 80 77 68 61 56 51 55 55 49 46 45 53 57 63 65 64 68 73 75 76 71 70 69 65 66 69 68
38 44 56 60 76 70 48 59 60 54 82 78 75 69 65 78 85 83 76 69 62 52 48 55 58 47 45 43 45 48 54 59 62 64 70 73 72 72 76 76 78 74 76 73
74 61 63 63 71 61 50 56 59 64 79 70 59 61 72 77 85 89 81 71 61 56 49 48 59 59 50 47 42 43 50 53 61 63 65 66 65 66 71 73 82 82 80 82
84 85 82 73 73 69 53 55 59 71 67 65 60 58 58 67 77 76 71 62 55 48 46 45 44 44 47 45 50 50 47 49 55 60 64 64 65 68 68 73 80 87 87 87
95 77 83 75 66 74 77 72 82 75 74 80 78 74 69 68 65 60 59 55 52 48 47 45 43 42 44 45 46 48 50 52 51 51 55 61 69 68 70 78 83 84 89 92
97 90 81 78 88 86 88 94 88 87 93 85 85 81 75 69 66 60 58 52 49 53 52 46 43 44 45 44 47 51 51 52 53 52 51 50 58 72 76 82 88 93 94 95
97 94 94 96 95 92 99 97 97 91 80 71 68 65 62 65 63 59 58 51 48 46 45 44 43 43 44 44 44 43 46 48 50 56 56 54 55 56 69 82 89 95 97 98
86 97 99 98 98 98 99 96 94 90 85 81 79 71 70 62 59 56 53 50 48 48 47 47 47 46 47 48 48 50 50 49 51 52 51 54 58 60 63 71 80 88 94 95